Location: Klinovec
(50.3970°N, 12.9600°E)
Time: 23:08:54
(UTC+01:00)

N. Korean satellite - Pass Details

Date: 22 November 2019
Orbit: 456 x 506 km, 97.2° (Epoch: 09 December)

Event Time Altitude Azimuth Distance (km) Brightness Sun altitude
Rises 05:49:14 0° 17° (NNE) 2,619 10.3 -16.1°
Reaches altitude 10° 05:51:23 10° 23° (NNE) 1,724 9.5 -15.8°
Maximum altitude 05:55:00 50° 99° (E) 646 7.6 -15.2°
Drops below altitude 10° 05:58:33 10° 176° (S) 1,687 9.5 -14.6°
Sets 06:00:39 0° 182° (S) 2,556 10.4 -14.3°
